Flag for Germany Weather past 2 weeks in Schleswig, Schleswig-Holstein, Germany

Now
51 °F

Overcast.


Feels Like: 51 °F
Forecast: 49 / 55 °F
Wind: 2 mph from West

Location: Schleswig

Current Time: Oct 21, 2014 at 1:22:13 AM

Latest Report: Oct 21, 2014 at 1:00 AM


Visibility: 13 mi

Pressure: 29.77 "Hg

Humidity: 99%

Dew point: 51 °F

Location of SchleswigLocation

Historic Weather in Schleswig — Graph

°F

Schleswig temperature yesterday

Maximum temperature yesterday: 59 °F (at 2:00 AM)
Minimum temperature yesterday: 52 °F (at 11:00 PM)
Average temperature yesterday: 56 °F

Past Weeks' High & Low Weather Summary

 TemperatureHumidityPressure
High64 °F (Oct 11, 3:00 PM)100% (Oct 11, 8:00 AM)30.12 "Hg (Oct 11, 8:00 AM)
Low46 °F (Oct 11, 8:00 AM)61% (Oct 12, 2:00 PM)29.47 "Hg (Oct 7, 3:00 PM)
Average55 °F90%29.80 "Hg
* Reported Midnight between Oct 5 and Oct 6 — Midnight between Oct 20 and Oct 21, Schleswig, Weather by CustomWeather, © 2014

Note: Actual official high and low records may vary slightly from our data, if they occured in-between our weather recording intervals... More about our weather records

Advertising

Schleswig weather history for previous 24 hours

 ConditionsComfort  
Time TempWeatherWind HumidityBarometerVisibility
12:00 AM
Oct 21
52 °FOvercast.3 mph97%29.78 "Hg9 mi
11:00 PM
Oct 20
52 °FLight rain. Overcast.5 mph96%29.79 "Hg9 mi
10:00 PM53 °FLight rain. Overcast.3 mph97%29.80 "Hg7 mi
9:00 PM53 °FLight rain. Overcast.5 mph98%29.80 "Hg9 mi
8:00 PM54 °FLight rain. Overcast.3 mph87%29.80 "Hg12 mi
7:00 PM54 °FOvercast.3 mph89%29.81 "Hg11 mi
6:00 PM55 °FOvercast.5 mph83%29.81 "Hg11 mi
4:00 PM58 °FPartly sunny.7 mph73%29.82 "Hg9 mi
3:00 PM58 °FPartly sunny.8 mph72%29.82 "Hg11 mi
2:00 PM56 °FPartly sunny.8 mph75%29.81 "Hg12 mi
1:00 PM58 °FPartly sunny.8 mph78%29.81 "Hg16 mi
12:00 PM58 °FPartly sunny.8 mph73%29.80 "Hg16 mi
10:00 AM57 °FScattered clouds.6 mph80%29.78 "Hg16 mi
9:00 AM54 °FScattered clouds.5 mph89%29.76 "Hg16 mi
8:00 AM54 °FScattered clouds.6 mph92%29.74 "Hg12 mi
7:00 AM56 °FOvercast.6 mph94%29.73 "Hg12 mi
5:00 AM57 °FSprinkles. Overcast.9 mph91%29.72 "Hg2 mi
4:00 AM58 °FOvercast.9 mph83%29.72 "Hg12 mi
3:00 AM59 °FOvercast.9 mph83%29.74 "Hg12 mi
2:00 AM59 °FOvercast.8 mph88%29.74 "Hg12 mi
1:00 AM59 °FOvercast.8 mph90%29.75 "Hg9 mi
Weather by CustomWeather, © 2014

See weather overviewHow to use our weather pages